Find LaoSat 1

NORAD ID: 41034 Int'l Des: 2015-067 Owner: LANAST/APMT Country: LA operational
HEOCIRCULARGSOGEO

現在のビュー

3D地球を読み込み中...

LaoSat 1について

説明を読み込み中...

次回通過

Passes for default location (London). Set your location on the main map for personalized predictions.

高度履歴

Loading altitude history...

軌道要素

1 41034U 15067A 26149.53048127 -.00000331 00000-0 00000-0 0 9991
2 41034 0.0335 122.3486 0002487 270.0046 174.2179 1.00272977 38671
Epoch: May 29, 2026 • Age: 12 hours

現在のステータス

高度 35775.5 km
速度 3.08 km/s
衛星直下点 0.01°N, 128.53°E
打ち上げ日 Nov 20, 2015
運用期間 10.5 years
タイプ other

技術仕様

分類 Payload
質量 5086.00 kg
乾燥質量 2500.00 kg
総質量 5086.00 kg
長さ 5.00 m
直径 2.50 m
スパン 30.00 m
形状 Box+ 2 panels
製造者 CAST
バスタイプ DFH-3B
フェーズステータス In Orbit
所有者/国 LANAST/APMT/LA

Most Searched